Other Public Products
Issued by NWS Charleston, SC

Current Version | Previous Version | Graphics & Text | Print | Product List | Glossary On
Versions: 1 2 3 4 5 6 7 8 9 10 11 12 13 14 15 16 17 18 19 20 21 22 23 24 25 26 27 28 29 30 31 32 33 34 35 36 37 38 39 40 41 42 43 44 45 46 47 48 49 50
000 FPUS82 KCHS 172112 OPUCHS TEST...KCHS/KSAV Gateway Observations...TEST National Weather Service Charleston SC 400 PM EST FRI NOV 17 2017 NOTE: "fair" indicates few or no clouds below 12,000 feet with no significant weather and/or obstructions to visibility. SCZ050-WAZ558-NCZ071-TXZ119-213-PAZ071-DCZ001-FLZ074-172-MI076- NYZ176-178-MAZ016-IL014-TNZ027-NJZ106-GAZ044-MD014-172200- ...Gateway Observations for Charleston International... CITY SKY/WX TMP DP RH WIND PRES REMARKS Chas Airport SUNNY 64 41 42 VRB6 30.14S Seattle PTSUNNY 49 39 68 SW16 30.12R Charlotte MOSUNNY 61 28 28 S5 30.13F Dallas DFW CLOUDY 82 65 56 SW20 29.76F Dallas Love PTSUNNY 81 64 56 S15G23 29.78F Philladelphia PTCLDY 50 20 30 NW13 30.12R Wash National MOCLDY 51 26 37 NW10 30.16S Baltimore CLOUDY 51 26 37 NW5 30.14S Miami PTSUNNY 79 61 53 NE9G18 29.99S Detroit CLOUDY 40 31 70 SE9 30.03F WCI 34 Newark PTCLDY 48 16 27 NW15G24 30.08R Laguardia PTCLDY 49 20 31 NW22 30.06R J F K PTCLDY 47 15 27 NW20 30.07R Boston Logan CLEAR 41 18 39 NW14G25 29.93R Ft. Lauderdale MOSUNNY 77 64 64 NE17G23 29.98S Chicago O`Hare LGT RAIN 40 36 86 S20G25 29.80F FOG WCI 30 Chicago Midway LGT RAIN 42 37 82 S12G22 29.82F Houston Bush MOSUNNY 85 63 47 S10G20 29.91F Houston Hobby MOSUNNY 82 66 58 S14G24 29.92F Nashville PTSUNNY 66 32 28 S9 30.01F Atlanta CLOUDY 65 43 44 SE7 30.09F $$ GAZ044-118-TXZ119-213-NCZ071-DCZ001-MDZ014-506-PAZ021-071-NJZ106- NYZ176-178-MAZ106-OHZ011-021-055-MIZ076-KYZ091-ILZ014-INZ047- MNZ060-ONZ431-172200- ...Gateway Observations for Savannah International... CITY SKY/WX TMP DP RH WIND PRES REMARKS Savannah Arpt MOSUNNY 67 42 40 E12 30.13S Atlanta CLOUDY 65 43 44 SE7 30.09F Charlotte MOSUNNY 61 28 28 S5 30.13F Dallas DFW CLOUDY 82 65 56 SW20 29.76F Houston Bush MOSUNNY 85 63 47 S10G20 29.91F Wash National MOCLDY 51 26 37 NW10 30.16S Wash Dulles PTCLDY 50 29 44 W6 30.15F Baltimore CLOUDY 51 26 37 NW5 30.14S Philadelphia PTCLDY 50 20 30 NW13 30.12R Newark PTCLDY 48 16 27 NW15G24 30.08R Laguardia PTCLDY 49 20 31 NW22 30.06R J F K PTCLDY 47 15 27 NW20 30.07R Boston CLEAR 41 18 39 NW14G25 29.93R Pittsburg MOCLDY 43 28 55 S6 30.11F Akron CLOUDY 43 28 55 S10 30.09F Cleveland CLOUDY 44 29 55 S15 30.07F Cincinnati CLOUDY 49 35 58 SE10 30.01F Columbus CLOUDY 48 32 53 SE10 30.05F Detroit CLOUDY 40 31 70 SE9 30.03F WCI 34 Chicago O`Hare LGT RAIN 40 36 86 S20G25 29.80F FOG WCI 30 Minneapolis DRIZZLE 38 38 100 E3 29.62F FOG Indianapolis CLOUDY 47 33 58 SE12 29.94F Toronto Canada MOCLDY 34 23 64 S7 30.11F WCI 28 $$

USA.gov is the U.S. government's official web portal to all federal, state and local government web resources and services.